User: anonymous   Login
Location: Caltech
(34.1382°N, 118.1253°W)
Time: 17:22:45
(UTC-07:00)
Language:

SL-16 R/B - Orbit

View from above orbital plane
View from above orbital plane
View from above satellite
View from above satellite

Ground track
Ground track

The orbit data is extracted from the following two-line orbital elements,

1 28353U 04021B   16146.53110903 +.00000316 +00000-0 +19067-3 0  9994
2 28353 070.9995 171.4286 0003289 055.7508 304.3925 14.14178151617343
Epoch (UTC): 25 May 2016 12:44:47
Eccentricity: 0.0003289
inclination: 70.9995°
perigee height: 843 km
apogee height: 847 km
right ascension of ascending node: 171.4286°
argument of perigee: 55.7508°
revolutions per day: 14.14178151
mean anomaly at epoch: 304.3925°
orbit number at epoch: 61734

The dashed part of the orbit path shows where the satellite is in the earth's shadow,  

DLR